Location: Unspecified
(35.7250°N, 0.0000°E)
Time: 01:54:57
(UTC+00:00)

Vanguard 2 - Pass Details

Date: 20 June 2019
Orbit: 554 x 2937 km, 32.9° (Epoch: 14 October)

Event Time Altitude Azimuth Distance (km) Brightness Sun altitude
Rises 09:20:18 0° 251° (WSW) 3,331 10.5 53.2°
Reaches altitude 10° 09:22:21 10° 248° (WSW) 2,593 10.0 53.6°
Maximum altitude 09:28:33 67° 167° (SSE) 1,345 9.9 54.8°
Drops below altitude 10° 09:39:08 10° 88° (E) 4,294 12.0 56.9°
Sets 09:43:30 0° 86° (E) 5,678 12.4 57.8°
